FENGYUN 1C DEB, 30577

Orbit data source: Space-Track

FENGYUN 1C DEB, 30577 is space debris in SSO originally from a launch on Mon, 10 May 1999 UTC launched from the Taiyaun Space Center, China (TSC). Fengyun 1C debris stems from the Chinese weather satellite Fengyun-1C, which was intentionally destroyed by a Chinese anti-satellite missile in 2007. This event dramatically increased the amount of space debris, with thousands of trackable fragments posing hazards to satellites and human spaceflight. The Fengyun 1C debris cloud has become a focal point in discussions about space sustainability and the need for international regulations to prevent the creation of new debris.

Loading next visibility...
Identifier
30577, 1999-025ALT
Orbit
SSO
Country
Flag of CNCN / PRC
Related business
Manufacturer
Unknown
Mission
Spacecraft
Bus & Motor
Unknown
Mass
Unknown
Launch date (UTC)
1999-05-10 (27 years ago)
Launch vehicle
Unknown
Launch site
Taiyaun Space Center, China (TSC)
Object type
Payload
Rocket body
Debris
Shape & HBR
Unknown shape, 0.1 m
Radar Cross Section
Medium (>0.1 m² and <1 m²)

Expand to show TLE details & history
Last TLE update: 1 day ago

TLE from 1 day ago
0 FENGYUN 1C DEB
1 30577U 99025ALT 26166.37476228  .00000622  00000-0  36520-3 0  9996
2 30577  98.7475 200.8269 0030789 118.0503 254.2251 14.11456581993891
Epoch: 2026-06-15T08:59Z
TLE epoch observation values (Epoch: 2026-06-15T08:59:39.460Z)
Latitude
11.75167°
Longitude
160.42576°
Altitude
862.653 km
Speed
7.419 km/s
True Right ascension
13h 16m 00s
True Declination
11° 41' 03"
Sunlit
Object was in daylight at epoch
Visualization orbit readout
Latitude
Unknown
Longitude
Unknown
Altitude
Unknown
Speed
Unknown
Apparent Right ascension
Unknown
Apparent Declination
Unknown
Sunlit
N/A
Visualization observer readout
Local Sidereal Time
23:48:10
Azimuth
Unknown
Elevation
Unknown
Doppler factor
Unknown
Orbital elements
Apogee altitude
873.823 km
Perigee altitude
829.304 km
Semi-major axis
7,229.7 km
Eccentricity
0.00308
Inclination
98.7475°
RAAN
200.8269°
Arg. of periapsis
118.0503°
True anomaly
253.88593°
Mean anomaly
254.2251°
Eccentric anomaly
254.05548°
Mean motion
3.53072 °/min
Orbital period
101.96 mins
BSTAR
0.0003652
Loading maneuver chart data...
Computing Atmospheric mass density...

Documentation

Showing up to 5 results
|